DateTimeUTC,F1_A11,F1_S11,BsB_S11,BsG_S11,BsR_S11,BbsB_S11,BbsG_S11,BbsR_S11,BaB_A11,BaG_A11,BaR_A11,Tu_S11,T_S11,Uu_S11,U_S11,P_S11,T1_A11
2021-09-14T03:00:00Z,00000200,21000000,,,,,,,-000.20,-000.24,-000.46,18.8,25.8,01.2,00.8,0659.9,31.1
2021-09-14T03:01:00Z,00000200,21000000,,,,,,,-000.62,-000.08,-000.12,18.8,25.8,01.2,00.8,0659.9,31.1
2021-09-14T03:02:00Z,00000200,21000000,,,,,,,-000.03,-000.75,-000.52,18.8,25.8,01.2,00.8,0659.9,31.1
2021-09-14T03:03:00Z,00000200,61000000,,,,,,,0000.23,0000.55,0000.40,18.8,25.8,00.9,00.6,0659.9,31.1
2021-09-14T03:04:00Z,00000200,41000000,0001.45,0000.71,0000.71,0000.49,0000.38,0000.44,0000.49,0000.24,0000.71,18.8,25.6,01.1,00.7,0660.8,31.1
2021-09-14T03:05:00Z,00000200,01000000,0000.96,0000.84,0000.56,-000.14,0000.47,0000.28,0000.71,0000.63,-000.39,18.9,25.5,01.1,00.8,0660.9,31.1
2021-09-14T03:06:00Z,00000200,01000000,0001.92,0000.95,0000.87,0000.19,0000.21,0000.49,-000.45,-000.09,0000.35,18.8,25.5,01.2,00.8,0660.9,31.1
2021-09-14T03:07:00Z,00000200,01000000,0001.01,0000.74,0000.49,0000.08,0000.39,0000.48,0000.92,0000.16,0000.03,18.8,25.5,01.2,00.8,0660.9,31.0
2021-09-14T03:08:00Z,00000200,01000000,0000.96,0000.99,0000.62,0000.49,0000.43,0000.20,0000.35,0000.55,0000.56,18.8,25.5,01.2,00.8,0660.9,31.1
2021-09-14T03:09:00Z,00000200,01000000,0000.53,0000.99,0000.79,0000.08,0000.31,0000.51,-000.07,0000.52,0000.12,18.8,25.4,01.3,00.8,0660.8,31.0
2021-09-14T03:10:00Z,00000200,01000000,0001.35,0000.95,0000.78,0000.52,0000.02,0000.12,0000.65,-000.14,0000.03,18.8,25.4,01.3,00.9,0660.8,31.0
2021-09-14T03:11:00Z,00000200,01000000,0001.52,0001.00,0000.58,-000.17,0000.15,-000.12,0000.19,0000.75,0000.48,18.8,25.4,01.3,00.9,0660.8,31.0
2021-09-14T03:12:00Z,00000200,01000000,0001.29,0000.88,0000.34,-000.13,0000.09,0000.20,0000.23,0000.24,0000.45,18.9,25.4,01.3,00.9,0660.8,31.1
2021-09-14T03:13:00Z,00000200,01000000,0001.35,0000.88,0000.45,-000.35,0000.32,0000.36,0000.42,0000.18,0000.18,18.9,25.5,01.2,00.8,0660.9,31.1
2021-09-14T03:14:00Z,00000200,01000000,0000.75,0000.94,0000.64,-000.20,0000.37,0000.37,-000.00,-000.07,-000.07,19.0,25.5,01.2,00.8,0660.9,31.1
2021-09-14T03:15:00Z,00000200,01000000,0001.10,0000.88,0000.56,-000.29,0000.02,0000.12,0000.23,0000.73,0000.45,19.0,25.5,01.2,00.8,0660.9,31.1
2021-09-14T03:16:00Z,00000200,01000000,0001.53,0000.77,0000.31,0000.39,-000.21,0000.38,-000.08,-000.61,-000.29,19.0,25.5,01.1,00.7,0660.9,31.1
2021-09-14T03:17:00Z,00000200,01000000,0000.82,0000.88,0000.57,0000.07,0000.09,0000.31,0000.46,-000.25,-000.03,19.0,25.5,01.1,00.7,0660.9,31.1
2021-09-14T03:18:00Z,00000200,01000000,0001.09,0000.97,0000.59,-000.09,-000.06,0000.09,-000.10,0000.77,0000.07,18.9,25.5,00.9,00.6,0660.9,31.1
2021-09-14T03:19:00Z,00000200,01000000,0001.82,0000.87,0000.72,0000.21,0000.20,0000.26,-000.05,0000.09,-000.03,18.9,25.5,01.0,00.7,0660.9,31.1
2021-09-14T03:20:00Z,00000200,01000000,0002.11,0001.10,0000.48,0000.48,0000.14,0000.40,0000.39,0000.14,0000.53,18.9,25.5,01.0,00.7,0660.9,31.1
2021-09-14T03:21:00Z,00000200,01000000,0000.28,0000.79,0000.89,0000.49,0000.17,0000.27,0000.15,0000.10,0000.13,18.9,25.5,00.9,00.6,0660.9,31.1
2021-09-14T03:22:00Z,00000200,01000000,0001.28,0000.75,0000.78,-000.01,0000.39,0000.43,0000.30,0000.13,0000.14,18.8,25.4,00.9,00.6,0660.9,31.1
2021-09-14T03:23:00Z,00000200,01000000,0000.59,0000.54,0000.67,-000.47,0000.30,0000.29,0000.23,0000.51,0000.16,18.8,25.4,00.9,00.6,0660.9,31.1
2021-09-14T03:24:00Z,00000200,01000000,0001.18,0000.69,0000.97,0000.21,-000.04,0000.57,0000.57,0000.41,0000.39,18.8,25.4,01.0,00.7,0660.9,31.0
2021-09-14T03:25:00Z,00000200,01000000,0001.12,0000.90,0000.46,0000.03,0000.36,0000.05,0000.57,0000.37,0000.45,18.8,25.4,01.0,00.7,0660.8,31.0
2021-09-14T03:26:00Z,00000200,01000000,0001.85,0001.01,0000.67,0000.09,0000.27,0000.05,0000.43,0000.44,0000.52,18.8,25.4,01.0,00.7,0660.9,31.1
2021-09-14T03:27:00Z,00000200,01000000,0000.82,0000.53,0000.61,0000.12,0000.30,0000.35,0000.01,0000.26,0000.04,18.8,25.4,01.1,00.7,0660.9,31.1
2021-09-14T03:28:00Z,00000200,01000000,0001.44,0000.78,0000.85,0000.19,0000.31,0000.08,0000.17,0000.37,0000.06,18.9,25.4,01.0,00.7,0660.8,31.1
2021-09-14T03:29:00Z,00000200,01000000,0000.83,0001.15,0000.26,-000.10,-000.09,-000.27,0000.33,0000.21,0000.24,18.8,25.4,01.0,00.6,0660.9,31.1
2021-09-14T03:30:00Z,00000200,01000000,0000.87,0001.01,0000.43,0000.18,0000.17,0000.39,0000.45,0000.36,-000.07,18.9,25.4,00.9,00.6,0660.8,31.1
2021-09-14T03:31:00Z,00000200,01000000,0001.38,0000.90,0000.66,0000.21,0000.22,0000.21,0000.28,-000.07,0000.17,18.8,25.4,00.8,00.6,0660.8,31.0
2021-09-14T03:32:00Z,00000200,01000000,0001.23,0000.74,0000.65,0000.39,-000.08,0000.11,-000.24,0000.23,0000.22,18.8,25.4,00.9,00.6,0660.8,31.1
2021-09-14T03:33:00Z,00000200,01000000,0001.10,0001.02,0000.59,0000.63,0000.32,0000.35,0000.40,-000.25,-000.03,18.8,25.4,00.8,00.5,0660.8,31.1
2021-09-14T03:34:00Z,00000200,01000000,0001.49,0000.99,0000.59,0000.05,0000.12,0000.11,0000.17,0000.03,0000.33,18.8,25.4,00.9,00.6,0660.8,31.0
2021-09-14T03:35:00Z,00000200,01000000,0001.70,0001.20,0000.99,0000.36,0000.17,0000.22,0000.22,0000.42,-000.11,18.8,25.3,00.8,00.5,0660.8,31.1
2021-09-14T03:36:00Z,00000200,01000000,0001.03,0001.11,0000.58,-000.03,0000.25,0000.15,0000.14,0000.11,0000.54,18.7,25.3,00.8,00.5,0660.8,31.0
2021-09-14T03:37:00Z,00000200,01000000,0001.67,0000.86,0000.44,0000.51,0000.25,0000.31,0000.26,0000.09,-000.11,18.7,25.3,00.8,00.5,0660.8,31.0
2021-09-14T03:38:00Z,00000200,01000000,0001.34,0001.03,0000.83,0000.74,0000.25,0000.08,0000.20,0000.44,0000.23,18.7,25.3,00.7,00.5,0660.8,31.0
2021-09-14T03:39:00Z,00000200,01000000,0000.62,0001.18,0000.79,0000.33,-000.15,0000.03,0000.11,0000.06,-000.02,18.7,25.3,00.7,00.4,0660.8,31.0
2021-09-14T03:40:00Z,00000200,01000000,0001.67,0001.13,0000.45,0000.29,0000.24,0000.34,0000.48,0000.64,0000.74,18.7,25.3,00.8,00.5,0660.8,31.0
2021-09-14T03:41:00Z,00000200,01000000,0001.33,0000.84,0000.47,0000.53,0000.51,0000.05,0000.59,0000.77,0000.50,18.7,25.3,00.6,00.4,0660.8,31.0
2021-09-14T03:42:00Z,00000200,01000000,0000.97,0000.92,0000.88,0000.74,0000.18,0000.25,0000.54,0000.48,0000.30,18.7,25.3,00.8,00.5,0660.8,31.1
2021-09-14T03:43:00Z,00000200,01000000,0001.28,0001.13,0000.72,0000.54,0000.05,0000.40,0000.22,0000.24,0000.13,18.8,25.3,00.8,00.5,0660.8,31.1
2021-09-14T03:44:00Z,00000200,01000000,0001.30,0000.88,0000.60,0000.03,0000.03,0000.40,0000.60,0000.20,0000.30,18.8,25.4,00.7,00.5,0660.7,31.1
2021-09-14T03:45:00Z,00000200,01000000,0001.57,0001.33,0000.76,0000.15,0000.30,0000.14,0000.57,0000.70,0000.49,18.9,25.4,00.8,00.5,0660.7,31.1
2021-09-14T03:46:00Z,00000200,01000000,0001.43,0001.07,0000.80,0000.57,0000.24,0000.11,0000.15,0000.07,0000.26,18.9,25.4,00.8,00.5,0660.8,31.0
2021-09-14T03:47:00Z,00000200,01000000,0002.01,0000.63,0000.93,0000.60,0000.71,0000.36,0000.23,-000.09,-000.07,18.8,25.3,00.7,00.5,0660.7,31.0
2021-09-14T03:48:00Z,00000200,01000000,0001.33,0000.83,0000.63,0000.65,0000.19,0000.09,0000.71,0000.47,0000.05,18.8,25.3,00.8,00.5,0660.7,31.0
2021-09-14T03:49:00Z,00000200,01000000,0001.46,0000.80,0000.84,0000.23,0000.13,0000.38,-000.29,0000.35,0000.45,18.8,25.3,00.8,00.6,0660.7,31.0
2021-09-14T03:50:00Z,00000200,01000000,0001.32,0000.82,0000.39,0000.19,0000.45,-000.05,0000.10,0000.22,0000.17,18.7,25.3,00.8,00.5,0660.6,31.0
2021-09-14T03:51:00Z,00000200,01000000,0001.65,0001.06,0000.86,0000.42,0000.28,0000.34,0000.85,0000.49,0000.34,18.7,25.3,01.0,00.7,0660.6,31.0
2021-09-14T03:52:00Z,00000200,01000000,0001.90,0001.07,0000.77,0000.04,0000.19,-000.07,0000.24,0000.25,0000.50,18.7,25.3,01.0,00.7,0660.5,31.0
2021-09-14T03:53:00Z,00000200,01000000,0001.45,0001.08,0001.01,0000.09,0000.39,0000.44,0000.67,0000.69,-000.03,18.7,25.3,01.0,00.7,0660.5,31.0
2021-09-14T03:54:00Z,00000200,01000000,0001.65,0001.15,0000.61,0000.25,0000.52,0000.10,0000.64,-000.10,0000.47,18.6,25.3,01.0,00.7,0660.5,31.0
2021-09-14T03:55:00Z,00000200,01000000,0001.50,0000.86,0000.74,0000.17,0000.24,0000.31,0000.55,0001.15,0000.47,18.6,25.2,01.1,00.7,0660.5,31.0
2021-09-14T03:56:00Z,00000200,01000000,0000.79,0001.07,0000.71,0000.87,0000.13,-000.25,0000.46,0000.87,0000.69,18.7,25.2,01.1,00.7,0660.5,31.0
2021-09-14T03:57:00Z,00000200,41000000,,,,,,,0000.48,0000.21,0000.19,18.7,25.3,00.9,00.6,0660.4,31.0
2021-09-14T03:58:00Z,00000200,61000000,,,,,,,0000.10,-000.26,0000.14,18.6,25.5,00.9,00.6,0659.6,31.1
2021-09-14T03:59:00Z,00000200,21000000,,,,,,,-000.26,0000.30,-000.13,18.6,25.6,00.9,00.6,0659.6,31.1
